#timestamp,LO_Frequency,Hit,StdDev 
1622541615.7,286047000.1,N
1622541635.6,286047000.4,N
1622541655.4,286047001.2,N
1622541675.2,286047000.6,N
1622541695.1,286047001.0,N
1622541696.0,286047001.0,N
1622541715.8,286047001.2,N
1622541735.7,286046998.2,N
1622541755.5,286047001.2,N
1622541775.3,286046999.7,N
1622541795.2,286047002.7,N
1622541815.0,286047000.5,N
1622541815.9,286047000.5,N
1622541835.7,286046998.5,N
1622541855.6,286047000.8,N
1622541875.4,286047000.9,N
1622541895.3,286047000.4,N
1622541915.1,286047001.0,N
1622541916.0,286047001.0,N
1622541935.8,286046999.9,N
1622541955.7,286046999.7,N
1622541975.5,286047000.0,N
1622541995.4,286047000.4,N
1622542015.2,286047001.6,N
1622542035.0,286047002.7,N
1622542035.9,286047002.7,N
1622542055.8,286047002.1,N
1622542075.6,286047000.2,N
1622542095.5,286047000.2,N
1622542115.3,286047002.5,N
1622542135.1,286047001.6,N
1622542155.9,286047003.2,N
1622542175.7,286047003.2,N
1622542195.6,286047002.9,N
1622542215.4,286047003.9,Y
1622542235.2,286047000.8,P
1622542255.1,286047001.1,P
1622542256.0,286047001.1,P
1622542275.8,286046998.1,Y
1622542295.7,286046996.9,P
1622542315.5,286047001.2,N
1622542335.3,286046999.7,N
1622542355.2,286047002.2,N
1622542375.0,286046998.5,N
1622542375.9,286046998.5,N
1622542395.8,286047001.1,N
1622542415.6,286046999.8,N
1622542435.4,286047002.6,N
1622542455.3,286047004.4,N
1622542475.1,286047001.5,N
1622542495.8,286047001.3,N
1622542515.7,286047003.8,N
1622542535.5,286047004.2,N
1622542555.3,286047001.5,N
1622542575.2,286047003.1,N
1622542595.0,286047003.2,N
1622542595.9,286047003.2,N
1622542615.8,286047004.1,N
1622542635.6,286047002.5,N
1622542655.4,286047004.4,N
1622542675.3,286047004.0,N
1622542695.1,286047003.6,N
1622542715.8,286047001.4,N
1622542735.7,286046999.8,N
1622542755.5,286047000.3,N
1622542775.4,286047003.9,N
1622542795.2,286047001.8,N
1622542815.0,286047002.2,N
1622542815.9,286047002.2,N
1622542835.8,286047004.4,N
1622542855.6,286047001.9,N
1622542875.5,286047002.5,N
1622542895.3,286047002.5,N
1622542915.1,286047002.4,N
1622542935.9,286047002.2,N
1622542955.7,286047000.8,N
1622542975.5,286047000.8,N
1622542995.4,286047000.8,N
1622543015.2,286047002.6,N
1622543035.1,286047004.4,Y
1622543036.0,286047004.4,P
1622543055.8,286047000.8,N
1622543075.6,286047000.6,N
1622543095.5,286046999.4,N
1622543115.3,286046998.6,N
1622543135.1,286047000.0,N
1622543155.9,286047000.3,N
1622543175.7,286047000.1,N
1622543195.6,286047001.9,N
1622543215.4,286047002.4,N
1622543235.2,286047002.4,N
1622543255.1,286046999.9,N
1622543256.0,286046999.9,N
1622543275.8,286047000.4,N
1622543295.7,286047002.5,N
1622543315.5,286046999.7,N
1622543335.3,286047000.9,N
1622543355.2,286047000.3,N
1622543375.9,286047002.8,N
1622543395.7,286046999.9,N
1622543415.6,286047002.7,N
1622543435.4,286047002.6,N
1622543455.3,286047002.4,N
1622543475.1,286047001.9,N
1622543495.9,286047000.1,N
1622543515.7,286046998.7,N
1622543535.5,286046998.5,N
1622543555.4,286046998.1,N
1622543575.2,286046999.3,N
1622543595.1,286046996.5,N
1622543596.0,286046996.5,N
1622543615.8,286047000.4,N
1622543635.6,286047000.0,N
1622543655.5,286047000.2,N
1622543675.3,286046998.7,N
1622543695.2,286046999.0,N
1622543715.0,286046998.9,N
1622543715.9,286046998.9,N
1622543735.8,286046999.4,N
1622543755.6,286047001.1,N
1622543775.5,286046998.4,N
1622543795.3,286047000.8,N
1622543815.1,286047000.0,N
1622543835.9,286047000.1,N
1622543855.7,286047000.8,N
1622543875.5,286047000.8,N
1622543895.4,286046996.6,N
1622543915.2,286047001.2,N
1622543935.1,286047001.1,N
1622543936.0,286047001.1,N
1622543955.8,286046998.1,N
1622543975.6,286046996.8,N
1622543995.5,286046997.2,N
1622544015.3,286046997.7,N
1622544035.2,286046997.7,N
1622544055.9,286046997.0,N
1622544075.7,286047000.7,N
1622544095.6,286046998.6,N
1622544115.4,286047000.0,N
1622544135.2,286047001.2,N
1622544155.1,286046998.5,N
1622544156.0,286046998.5,N
1622544175.8,286046998.3,N
1622544195.7,286046999.6,N
1622544215.5,286046999.2,N
1622544235.3,286046998.6,N
1622544255.2,286046997.2,N
1622544275.0,286046997.0,N
1622544275.9,286046997.0,N
1622544295.7,286046999.5,N
1622544315.6,286046998.2,N
1622544335.4,286047001.2,N
1622544355.3,286047002.7,N
1622544375.1,286047000.5,N
1622544376.0,286047000.5,N
1622544395.8,286047000.0,N
1622544415.7,286047001.8,N
1622544435.5,286047002.3,N
1622544455.3,286047000.5,N
1622544475.2,286047001.0,N
1622544495.0,286047000.3,N
1622544495.9,286047000.3,N
1622544515.8,286047000.0,N
1622544535.6,286046997.7,N
1622544555.4,286046994.9,Y
1622544575.3,286046997.4,P
1622544595.1,286047000.8,N
1622544615.9,286046999.4,N
1622544635.7,286046998.5,N
1622544655.5,286047002.7,N
1622544675.4,286047000.3,N
1622544695.2,286047001.8,N
1622544715.0,286047003.2,N
1622544715.9,286047003.2,N
1622544735.8,286047001.8,N
1622544755.6,286047001.7,N
1622544775.5,286047001.6,N
1622544795.3,286046999.7,N
1622544815.1,286047003.6,N
1622544835.9,286047006.0,Y
1622544855.7,286047002.1,P
1622544875.5,286047002.2,P
1622544895.4,286047002.4,P
1622544915.2,286046999.7,N
1622544935.1,286047000.0,N
1622544936.0,286047000.0,N
1622544955.8,286046998.7,N
1622544975.7,286046999.0,N
1622544995.5,286046995.5,Y
1622545015.3,286046997.3,P
1622545035.2,286046998.6,N
1622545055.0,286046999.4,N
1622545055.9,286046999.4,N
1622545075.7,286047000.7,N
1622545095.6,286046998.9,N
1622545115.4,286046998.4,N
1622545135.3,286047000.7,N
1622545155.1,286047000.8,N
1622545156.0,286047000.8,N
1622545175.8,286046998.5,N
1622545195.7,286047000.7,N
